"Sample Date","Sample Time","Sample Value","Units","Flow Rate","Sample Interval","Number Channels","Micron Size 0","Counts/Channel 0","Micron Size 1","Counts/Channel 1","Micron Size 2","Counts/Channel 2","Micron Size 3","Counts/Channel 3","Micron Size 4","Counts/Channel 4","Micron Size 5","Counts/Channel 5","Micron Size 6","Counts/Channel 6","Micron Size 7","Counts/Channel 7","Micron Size 8","Counts/Channel 8","Micron Size 9","Counts/Channel 9","Micron Size 10","Counts/Channel 10","Micron Size 11","Counts/Channel 11","Micron Size 12","Counts/Channel 12","Micron Size 13","Counts/Channel 13","Micron Size 14","Counts/Channel 14","Micron Size 15","Counts/Channel 15","Micron Size 16","Counts/Channel 16","Micron Size 17","Counts/Channel 17","Micron Size 18","Counts/Channel 18","Micron Size 19","Counts/Channel 19","Micron Size 20","Counts/Channel 20","Micron Size 21","Counts/Channel 21","Micron Size 22","Counts/Channel 22","Micron Size 23","Counts/Channel 23","Micron Size 24","Counts/Channel 24","Micron Size 25","Counts/Channel 25","Micron Size 26","Counts/Channel 26","Micron Size 27","Counts/Channel 27","Micron Size 28","Counts/Channel 28","Micron Size 29","Counts/Channel 29","Micron Size 30","Counts/Channel 30","Micron Size 31","Counts/Channel 31"
"04/05/08","07:00:00",9769.000,"cc",28354.559,6.00,6,0.100,9677.000,0.200,89.000,0.300,2.000,0.500,1.000,1.000,0,5.000,0
"04/05/08","07:00:06",10726.000,"cc",28272.820,6.00,6,0.100,10566.000,0.200,158.000,0.300,2.000,0.500,0,1.000,0,5.000,0
"04/05/08","07:00:12",10937.000,"cc",28261.346,6.00,6,0.100,10722.000,0.200,211.000,0.300,4.000,0.500,0,1.000,0,5.000,0
"04/05/08","07:00:18",10208.000,"cc",28364.121,6.00,6,0.100,10042.000,0.200,165.000,0.300,0,0.500,1.000,1.000,0,5.000,0
"04/05/08","07:00:24",11226.000,"cc",28360.932,6.00,6,0.100,11050.000,0.200,172.000,0.300,4.000,0.500,0,1.000,0,5.000,0
"04/05/08","07:00:30",11178.000,"cc",28320.389,6.00,6,0.100,10952.000,0.200,222.000,0.300,4.000,0.500,0,1.000,0,5.000,0
"04/05/08","07:00:36",8429.000,"cc",28249.850,6.00,6,0.100,8293.000,0.200,134.000,0.300,2.000,0.500,0,1.000,0,5.000,0
"04/05/08","07:00:42",7684.000,"cc",28327.852,6.00,6,0.100,7551.000,0.200,131.000,0.300,2.000,0.500,0,1.000,0,5.000,0
"04/05/08","07:00:48",10068.000,"cc",28333.301,6.00,6,0.100,9884.000,0.200,180.000,0.300,2.000,0.500,2.000,1.000,0,5.000,0
"04/05/08","07:00:54",9730.000,"cc",28276.928,6.00,6,0.100,9552.000,0.200,175.000,0.300,2.000,0.500,1.000,1.000,0,5.000,0
"04/05/08","07:01:00",6622.000,"cc",28333.631,6.00,6,0.100,6492.000,0.200,128.000,0.300,2.000,0.500,0,1.000,0,5.000,0
"04/05/08","07:01:06",5350.000,"cc",28333.260,6.00,6,0.100,5247.000,0.200,98.000,0.300,5.000,0.500,0,1.000,0,5.000,0
"04/05/08","07:01:12",9072.000,"cc",28323.867,6.00,6,0.100,8837.000,0.200,234.000,0.300,0,0.500,1.000,1.000,0,5.000,0
"04/05/08","07:01:18",7512.000,"cc",28331.307,6.00,6,0.100,7370.000,0.200,140.000,0.300,1.000,0.500,1.000,1.000,0,5.000,0
"04/05/08","07:01:24",7468.000,"cc",28302.973,6.00,6,0.100,7307.000,0.200,159.000,0.300,1.000,0.500,1.000,1.000,0,5.000,0
"04/05/08","07:01:30",5840.000,"cc",28328.266,6.00,6,0.100,5701.000,0.200,137.000,0.300,2.000,0.500,0,1.000,0,5.000,0
"04/05/08","07:01:36",5411.000,"cc",28312.398,6.00,6,0.100,5289.000,0.200,119.000,0.300,3.000,0.500,0,1.000,0,5.000,0
"04/05/08","07:01:42",4764.000,"cc",28339.482,6.00,6,0.100,4651.000,0.200,113.000,0.300,0,0.500,0,1.000,0,5.000,0
"04/05/08","07:01:48",5450.000,"cc",28278.652,6.00,6,0.100,5320.000,0.200,126.000,0.300,4.000,0.500,0,1.000,0,5.000,0
"04/05/08","07:01:54",6143.000,"cc",28325.631,6.00,6,0.100,6003.000,0.200,139.000,0.300,1.000,0.500,0,1.000,0,5.000,0
"04/05/08","07:02:00",7325.000,"cc",28369.717,6.00,6,0.100,7190.000,0.200,134.000,0.300,1.000,0.500,0,1.000,0,5.000,0
"04/05/08","07:02:06",3467.000,"cc",28282.479,6.00,6,0.100,3407.000,0.200,60.000,0.300,0,0.500,0,1.000,0,5.000,0
"04/05/08","07:02:12",5974.000,"cc",28324.488,6.00,6,0.100,5833.000,0.200,138.000,0.300,3.000,0.500,0,1.000,0,5.000,0
"04/05/08","07:02:18",3520.000,"cc",28262.217,6.00,6,0.100,3444.000,0.200,76.000,0.300,0,0.500,0,1.000,0,5.000,0
"04/05/08","07:02:24",4140.000,"cc",28306.713,6.00,6,0.100,4069.000,0.200,70.000,0.300,1.000,0.500,0,1.000,0,5.000,0
"04/05/08","07:02:30",5165.000,"cc",28354.277,6.00,6,0.100,5067.000,0.200,97.000,0.300,1.000,0.500,0,1.000,0,5.000,0
"04/05/08","07:02:36",5003.000,"cc",28325.131,6.00,6,0.100,4884.000,0.200,117.000,0.300,2.000,0.500,0,1.000,0,5.000,0
"04/05/08","07:02:42",5345.000,"cc",28357.051,6.00,6,0.100,5241.000,0.200,103.000,0.300,1.000,0.500,0,1.000,0,5.000,0
"04/05/08","07:02:48",5061.000,"cc",28262.217,6.00,6,0.100,4980.000,0.200,79.000,0.300,1.000,0.500,0,1.000,0,5.000,1.000
"04/05/08","07:02:54",4440.000,"cc",28261.830,6.00,6,0.100,4359.000,0.200,79.000,0.300,2.000,0.500,0,1.000,0,5.000,0
"04/05/08","07:03:00",3845.000,"cc",28312.602,6.00,6,0.100,3775.000,0.200,70.000,0.300,0,0.500,0,1.000,0,5.000,0
"04/05/08","07:03:06",3861.000,"cc",28369.361,6.00,6,0.100,3776.000,0.200,84.000,0.300,1.000,0.500,0,1.000,0,5.000,0
"04/05/08","07:03:12",4573.000,"cc",28238.553,6.00,6,0.100,4474.000,0.200,98.000,0.300,1.000,0.500,0,1.000,0,5.000,0
"04/05/08","07:03:18",3788.000,"cc",28331.645,6.00,6,0.100,3716.000,0.200,69.000,0.300,2.000,0.500,1.000,1.000,0,5.000,0
"04/05/08","07:03:24",2717.000,"cc",28349.031,6.00,6,0.100,2673.000,0.200,44.000,0.300,0,0.500,0,1.000,0,5.000,0
"04/05/08","07:03:30",2547.000,"cc",28310.078,6.00,6,0.100,2512.000,0.200,35.000,0.300,0,0.500,0,1.000,0,5.000,0
"04/05/08","07:03:36",1881.000,"cc",28340.738,6.00,6,0.100,1859.000,0.200,22.000,0.300,0,0.500,0,1.000,0,5.000,0
"04/05/08","07:03:42",1486.000,"cc",28322.322,6.00,6,0.100,1473.000,0.200,13.000,0.300,0,0.500,0,1.000,0,5.000,0
"04/05/08","07:03:48",2153.000,"cc",28330.635,6.00,6,0.100,2133.000,0.200,19.000,0.300,1.000,0.500,0,1.000,0,5.000,0
"04/05/08","07:03:54",2744.000,"cc",28321.520,6.00,6,0.100,2702.000,0.200,41.000,0.300,1.000,0.500,0,1.000,0,5.000,0
"04/05/08","07:04:00",2224.000,"cc",28247.539,6.00,6,0.100,2192.000,0.200,31.000,0.300,1.000,0.500,0,1.000,0,5.000,0
"04/05/08","07:04:06",2526.000,"cc",28316.666,6.00,6,0.100,2488.000,0.200,38.000,0.300,0,0.500,0,1.000,0,5.000,0
"04/05/08","07:04:12",2707.000,"cc",28268.272,6.00,6,0.100,2665.000,0.200,42.000,0.300,0,0.500,0,1.000,0,5.000,0
"04/05/08","07:04:18",3248.000,"cc",28334.990,6.00,6,0.100,3204.000,0.200,43.000,0.300,0,0.500,1.000,1.000,0,5.000,0
"04/05/08","07:04:24",5459.000,"cc",28345.318,6.00,6,0.100,5358.000,0.200,99.000,0.300,2.000,0.500,0,1.000,0,5.000,0
"04/05/08","07:04:30",5368.000,"cc",28344.834,6.00,6,0.100,5279.000,0.200,88.000,0.300,1.000,0.500,0,1.000,0,5.000,0
"04/05/08","07:04:36",4509.000,"cc",28368.994,6.00,6,0.100,4430.000,0.200,78.000,0.300,1.000,0.500,0,1.000,0,5.000,0
"04/05/08","07:04:42",4644.000,"cc",28283.627,6.00,6,0.100,4532.000,0.200,111.000,0.300,0,0.500,1.000,1.000,0,5.000,0
"04/05/08","07:04:48",4458.000,"cc",28323.197,6.00,6,0.100,4369.000,0.200,89.000,0.300,0,0.500,0,1.000,0,5.000,0
"04/05/08","07:04:54",4587.000,"cc",28347.613,6.00,6,0.100,4502.000,0.200,84.000,0.300,0,0.500,1.000,1.000,0,5.000,0
"04/05/08","07:05:00",5154.000,"cc",28269.545,6.00,6,0.100,5068.000,0.200,84.000,0.300,1.000,0.500,0,1.000,1.000,5.000,0
"04/05/08","07:05:06",5309.000,"cc",28315.219,6.00,6,0.100,5187.000,0.200,119.000,0.300,2.000,0.500,0,1.000,1.000,5.000,0
"04/05/08","07:05:12",5363.000,"cc",28245.945,6.00,6,0.100,5256.000,0.200,106.000,0.300,0,0.500,0,1.000,1.000,5.000,0
"04/05/08","07:05:18",5445.000,"cc",28304.236,6.00,6,0.100,5334.000,0.200,110.000,0.300,1.000,0.500,0,1.000,0,5.000,0
"04/05/08","07:05:24",4870.000,"cc",28312.197,6.00,6,0.100,4758.000,0.200,110.000,0.300,1.000,0.500,0,1.000,1.000,5.000,0
"04/05/08","07:05:30",5260.000,"cc",28314.365,6.00,6,0.100,5132.000,0.200,127.000,0.300,1.000,0.500,0,1.000,0,5.000,0
"04/05/08","07:05:36",4902.000,"cc",28390.828,6.00,6,0.100,4791.000,0.200,109.000,0.300,2.000,0.500,0,1.000,0,5.000,0
"04/05/08","07:05:42",4047.000,"cc",28316.285,6.00,6,0.100,3956.000,0.200,89.000,0.300,2.000,0.500,0,1.000,0,5.000,0
"04/05/08","07:05:48",2524.000,"cc",28322.670,6.00,6,0.100,2484.000,0.200,39.000,0.300,1.000,0.500,0,1.000,0,5.000,0
"04/05/08","07:05:54",2346.000,"cc",28274.947,6.00,6,0.100,2307.000,0.200,38.000,0.300,0,0.500,1.000,1.000,0,5.000,0
"04/05/08","07:06:00",1442.000,"cc",28262.254,6.00,6,0.100,1425.000,0.200,17.000,0.300,0,0.500,0,1.000,0,5.000,0
"04/05/08","07:06:06",2631.000,"cc",28295.768,6.00,6,0.100,2593.000,0.200,37.000,0.300,1.000,0.500,0,1.000,0,5.000,0
"04/05/08","07:06:12",3025.000,"cc",28367.826,6.00,6,0.100,2966.000,0.200,57.000,0.300,1.000,0.500,1.000,1.000,0,5.000,0
"04/05/08","07:06:18",2370.000,"cc",28356.465,6.00,6,0.100,2309.000,0.200,60.000,0.300,1.000,0.500,0,1.000,0,5.000,0
"04/05/08","07:06:24",2516.000,"cc",28293.766,6.00,6,0.100,2467.000,0.200,48.000,0.300,1.000,0.500,0,1.000,0,5.000,0
"04/05/08","07:06:30",3207.000,"cc",28338.543,6.00,6,0.100,3133.000,0.200,73.000,0.300,1.000,0.500,0,1.000,0,5.000,0
"04/05/08","07:06:36",3711.000,"cc",28321.139,6.00,6,0.100,3622.000,0.200,88.000,0.300,0,0.500,1.000,1.000,0,5.000,0
"04/05/08","07:06:42",2581.000,"cc",28339.811,6.00,6,0.100,2518.000,0.200,62.000,0.300,1.000,0.500,0,1.000,0,5.000,0
"04/05/08","07:06:48",2512.000,"cc",28300.193,6.00,6,0.100,2465.000,0.200,46.000,0.300,1.000,0.500,0,1.000,0,5.000,0
"04/05/08","07:06:54",2551.000,"cc",28322.195,6.00,6,0.100,2490.000,0.200,59.000,0.300,1.000,0.500,1.000,1.000,0,5.000,0
"04/05/08","07:07:00",2418.000,"cc",28280.811,6.00,6,0.100,2368.000,0.200,49.000,0.300,1.000,0.500,0,1.000,0,5.000,0
"04/05/08","07:07:06",2598.000,"cc",28337.440,6.00,6,0.100,2549.000,0.200,47.000,0.300,2.000,0.500,0,1.000,0,5.000,0
"04/05/08","07:07:12",2195.000,"cc",28330.828,6.00,6,0.100,2151.000,0.200,43.000,0.300,1.000,0.500,0,1.000,0,5.000,0
"04/05/08","07:07:18",1674.000,"cc",28338.619,6.00,6,0.100,1646.000,0.200,26.000,0.300,2.000,0.500,0,1.000,0,5.000,0
"04/05/08","07:07:24",2021.000,"cc",28309.522,6.00,6,0.100,1991.000,0.200,30.000,0.300,0,0.500,0,1.000,0,5.000,0
"04/05/08","07:07:30",2279.000,"cc",28298.152,6.00,6,0.100,2245.000,0.200,33.000,0.300,1.000,0.500,0,1.000,0,5.000,0
"04/05/08","07:07:36",2167.000,"cc",28328.494,6.00,6,0.100,2112.000,0.200,44.000,0.300,7.000,0.500,4.000,1.000,0,5.000,0
"04/05/08","07:07:42",2189.000,"cc",28349.791,6.00,6,0.100,2147.000,0.200,40.000,0.300,2.000,0.500,0,1.000,0,5.000,0
"04/05/08","07:07:48",2316.000,"cc",28295.941,6.00,6,0.100,2279.000,0.200,36.000,0.300,0,0.500,1.000,1.000,0,5.000,0
"04/05/08","07:07:54",2403.000,"cc",28304.508,6.00,6,0.100,2356.000,0.200,47.000,0.300,0,0.500,0,1.000,0,5.000,0
"04/05/08","07:08:00",2389.000,"cc",28376.549,6.00,6,0.100,2347.000,0.200,40.000,0.300,2.000,0.500,0,1.000,0,5.000,0
"04/05/08","07:08:06",2496.000,"cc",28307.104,6.00,6,0.100,2459.000,0.200,35.000,0.300,1.000,0.500,1.000,1.000,0,5.000,0
"04/05/08","07:08:12",2382.000,"cc",28316.236,6.00,6,0.100,2342.000,0.200,39.000,0.300,1.000,0.500,0,1.000,0,5.000,0
"04/05/08","07:08:18",1915.000,"cc",28263.973,6.00,6,0.100,1883.000,0.200,31.000,0.300,1.000,0.500,0,1.000,0,5.000,0
"04/05/08","07:08:24",1883.000,"cc",28312.650,6.00,6,0.100,1860.000,0.200,22.000,0.300,1.000,0.500,0,1.000,0,5.000,0
"04/05/08","07:08:30",1919.000,"cc",28377.947,6.00,6,0.100,1878.000,0.200,41.000,0.300,0,0.500,0,1.000,0,5.000,0
"04/05/08","07:08:36",1989.000,"cc",28301.781,6.00,6,0.100,1951.000,0.200,38.000,0.300,0,0.500,0,1.000,0,5.000,0
"04/05/08","07:08:42",2024.000,"cc",28289.107,6.00,6,0.100,1993.000,0.200,30.000,0.300,0,0.500,1.000,1.000,0,5.000,0
"04/05/08","07:08:48",2081.000,"cc",28307.012,6.00,6,0.100,2039.000,0.200,39.000,0.300,1.000,0.500,1.000,1.000,1.000,5.000,0
"04/05/08","07:08:54",2239.000,"cc",28339.881,6.00,6,0.100,2195.000,0.200,37.000,0.300,4.000,0.500,3.000,1.000,0,5.000,0
"04/05/08","07:09:00",2349.000,"cc",28321.549,6.00,6,0.100,2316.000,0.200,33.000,0.300,0,0.500,0,1.000,0,5.000,0
"04/05/08","07:09:06",1790.000,"cc",28252.852,6.00,6,0.100,1763.000,0.200,26.000,0.300,1.000,0.500,0,1.000,0,5.000,0
"04/05/08","07:09:12",1880.000,"cc",28355.014,6.00,6,0.100,1855.000,0.200,23.000,0.300,2.000,0.500,0,1.000,0,5.000,0
"04/05/08","07:09:18",1870.000,"cc",28371.334,6.00,6,0.100,1835.000,0.200,35.000,0.300,0,0.500,0,1.000,0,5.000,0
"04/05/08","07:09:24",1885.000,"cc",28291.318,6.00,6,0.100,1853.000,0.200,32.000,0.300,0,0.500,0,1.000,0,5.000,0
"04/05/08","07:09:30",1721.000,"cc",28308.643,6.00,6,0.100,1701.000,0.200,19.000,0.300,1.000,0.500,0,1.000,0,5.000,0
"04/05/08","07:09:36",1653.000,"cc",28309.586,6.00,6,0.100,1622.000,0.200,26.000,0.300,5.000,0.500,0,1.000,0,5.000,0
"04/05/08","07:09:42",1654.000,"cc",28292.820,6.00,6,0.100,1633.000,0.200,15.000,0.300,6.000,0.500,0,1.000,0,5.000,0
"04/05/08","07:09:48",1731.000,"cc",28361.697,6.00,6,0.100,1705.000,0.200,26.000,0.300,0,0.500,0,1.000,0,5.000,0
"04/05/08","07:09:54",1882.000,"cc",28319.414,6.00,6,0.100,1871.000,0.200,11.000,0.300,0,0.500,0,1.000,0,5.000,0
"04/05/08","07:10:00",1866.000,"cc",28281.832,6.00,6,0.100,1846.000,0.200,20.000,0.300,0,0.500,0,1.000,0,5.000,0
"04/05/08","07:10:06",1957.000,"cc",28357.953,6.00,6,0.100,1928.000,0.200,27.000,0.300,0,0.500,2.000,1.000,0,5.000,0
"04/05/08","07:10:12",2130.000,"cc",28334.967,6.00,6,0.100,2103.000,0.200,25.000,0.300,2.000,0.500,0,1.000,0,5.000,0
"04/05/08","07:10:18",2094.000,"cc",28274.773,6.00,6,0.100,2065.000,0.200,29.000,0.300,0,0.500,0,1.000,0,5.000,0
"04/05/08","07:10:24",2137.000,"cc",28353.690,6.00,6,0.100,2107.000,0.200,28.000,0.300,2.000,0.500,0,1.000,0,5.000,0
"04/05/08","07:10:30",2137.000,"cc",28288.648,6.00,6,0.100,2106.000,0.200,30.000,0.300,0,0.500,1.000,1.000,0,5.000,0
"04/05/08","07:10:36",2308.000,"cc",28243.115,6.00,6,0.100,2267.000,0.200,40.000,0.300,0,0.500,1.000,1.000,0,5.000,0
"04/05/08","07:10:42",2322.000,"cc",28381.137,6.00,6,0.100,2293.000,0.200,29.000,0.300,0,0.500,0,1.000,0,5.000,0
"04/05/08","07:10:48",2380.000,"cc",28321.834,6.00,6,0.100,2346.000,0.200,32.000,0.300,1.000,0.500,1.000,1.000,0,5.000,0
"04/05/08","07:10:54",2159.000,"cc",28336.191,6.00,6,0.100,2133.000,0.200,23.000,0.300,3.000,0.500,0,1.000,0,5.000,0
"04/05/08","07:11:00",2323.000,"cc",28335.777,6.00,6,0.100,2281.000,0.200,42.000,0.300,0,0.500,0,1.000,0,5.000,0
"04/05/08","07:11:06",2099.000,"cc",28291.127,6.00,6,0.100,2073.000,0.200,25.000,0.300,0,0.500,0,1.000,1.000,5.000,0
"04/05/08","07:11:12",1986.000,"cc",28325.201,6.00,6,0.100,1955.000,0.200,30.000,0.300,0,0.500,1.000,1.000,0,5.000,0
"04/05/08","07:11:18",1873.000,"cc",28271.703,6.00,6,0.100,1851.000,0.200,22.000,0.300,0,0.500,0,1.000,0,5.000,0
"04/05/08","07:11:24",2086.000,"cc",28297.836,6.00,6,0.100,2058.000,0.200,27.000,0.300,1.000,0.500,0,1.000,0,5.000,0
"04/05/08","07:11:30",2183.000,"cc",28332.641,6.00,6,0.100,2152.000,0.200,27.000,0.300,1.000,0.500,2.000,1.000,1.000,5.000,0
"04/05/08","07:11:36",2230.000,"cc",28328.074,6.00,6,0.100,2197.000,0.200,32.000,0.300,1.000,0.500,0,1.000,0,5.000,0
"04/05/08","07:11:42",2168.000,"cc",28316.469,6.00,6,0.100,2137.000,0.200,31.000,0.300,0,0.500,0,1.000,0,5.000,0
"04/05/08","07:11:48",1884.000,"cc",28300.609,6.00,6,0.100,1868.000,0.200,16.000,0.300,0,0.500,0,1.000,0,5.000,0
"04/05/08","07:11:54",1969.000,"cc",28320.424,6.00,6,0.100,1952.000,0.200,14.000,0.300,2.000,0.500,0,1.000,1.000,5.000,0
"04/05/08","07:12:00",2237.000,"cc",28347.842,6.00,6,0.100,2209.000,0.200,27.000,0.300,1.000,0.500,0,1.000,0,5.000,0
"04/05/08","07:12:06",2154.000,"cc",28255.025,6.00,6,0.100,2127.000,0.200,27.000,0.300,0,0.500,0,1.000,0,5.000,0
"04/05/08","07:12:12",2265.000,"cc",28340.293,6.00,6,0.100,2233.000,0.200,31.000,0.300,1.000,0.500,0,1.000,0,5.000,0
"04/05/08","07:12:18",2224.000,"cc",28333.014,6.00,6,0.100,2178.000,0.200,43.000,0.300,1.000,0.500,2.000,1.000,0,5.000,0
"04/05/08","07:12:24",1984.000,"cc",28321.334,6.00,6,0.100,1952.000,0.200,30.000,0.300,1.000,0.500,1.000,1.000,0,5.000,0
"04/05/08","07:12:30",1960.000,"cc",28359.148,6.00,6,0.100,1931.000,0.200,26.000,0.300,3.000,0.500,0,1.000,0,5.000,0
"04/05/08","07:12:36",1951.000,"cc",28324.541,6.00,6,0.100,1922.000,0.200,27.000,0.300,1.000,0.500,1.000,1.000,0,5.000,0
"04/05/08","07:12:42",1923.000,"cc",28324.070,6.00,6,0.100,1893.000,0.200,28.000,0.300,2.000,0.500,0,1.000,0,5.000,0
"04/05/08","07:12:48",1997.000,"cc",28302.596,6.00,6,0.100,1972.000,0.200,24.000,0.300,1.000,0.500,0,1.000,0,5.000,0
"04/05/08","07:12:54",2100.000,"cc",28286.270,6.00,6,0.100,2060.000,0.200,40.000,0.300,0,0.500,0,1.000,0,5.000,0
"04/05/08","07:13:00",2249.000,"cc",28295.111,6.00,6,0.100,2219.000,0.200,27.000,0.300,3.000,0.500,0,1.000,0,5.000,0
"04/05/08","07:13:06",2233.000,"cc",28354.861,6.00,6,0.100,2205.000,0.200,27.000,0.300,1.000,0.500,0,1.000,0,5.000,0
"04/05/08","07:13:12",2254.000,"cc",28360.424,6.00,6,0.100,2232.000,0.200,21.000,0.300,0,0.500,1.000,1.000,0,5.000,0
"04/05/08","07:13:18",2307.000,"cc",28272.484,6.00,6,0.100,2248.000,0.200,50.000,0.300,3.000,0.500,6.000,1.000,0,5.000,0
"04/05/08","07:13:24",2464.000,"cc",28308.672,6.00,6,0.100,2417.000,0.200,41.000,0.300,3.000,0.500,2.000,1.000,1.000,5.000,0
"04/05/08","07:13:30",2515.000,"cc",28313.338,6.00,6,0.100,2477.000,0.200,38.000,0.300,0,0.500,0,1.000,0,5.000,0
"04/05/08","07:13:36",2550.000,"cc",28293.514,6.00,6,0.100,2496.000,0.200,51.000,0.300,2.000,0.500,1.000,1.000,0,5.000,0
"04/05/08","07:13:42",2553.000,"cc",28248.070,6.00,6,0.100,2502.000,0.200,50.000,0.300,1.000,0.500,0,1.000,0,5.000,0
"04/05/08","07:13:48",2535.000,"cc",28396.303,6.00,6,0.100,2495.000,0.200,39.000,0.300,1.000,0.500,0,1.000,0,5.000,0
"04/05/08","07:13:54",2690.000,"cc",28343.857,6.00,6,0.100,2650.000,0.200,39.000,0.300,1.000,0.500,0,1.000,0,5.000,0
"04/05/08","07:14:00",2751.000,"cc",28316.334,6.00,6,0.100,2704.000,0.200,44.000,0.300,2.000,0.500,1.000,1.000,0,5.000,0
"04/05/08","07:14:06",2736.000,"cc",28317.371,6.00,6,0.100,2687.000,0.200,48.000,0.300,1.000,0.500,0,1.000,0,5.000,0
"04/05/08","07:14:12",2925.000,"cc",28313.668,6.00,6,0.100,2878.000,0.200,40.000,0.300,3.000,0.500,3.000,1.000,1.000,5.000,0
"04/05/08","07:14:18",3006.000,"cc",28320.176,6.00,6,0.100,2904.000,0.200,72.000,0.300,17.000,0.500,10.000,1.000,3.000,5.000,0
"04/05/08","07:14:24",2972.000,"cc",28276.793,6.00,6,0.100,2842.000,0.200,90.000,0.300,18.000,0.500,20.000,1.000,2.000,5.000,0
"04/05/08","07:14:30",2842.000,"cc",28313.656,6.00,6,0.100,2791.000,0.200,45.000,0.300,4.000,0.500,2.000,1.000,0,5.000,0
"04/05/08","07:14:36",3318.000,"cc",28338.690,6.00,6,0.100,3253.000,0.200,64.000,0.300,1.000,0.500,0,1.000,0,5.000,0
"04/05/08","07:14:42",3421.000,"cc",28276.473,6.00,6,0.100,3371.000,0.200,50.000,0.300,0,0.500,0,1.000,0,5.000,0
"04/05/08","07:14:48",2494.000,"cc",28316.484,6.00,6,0.100,2452.000,0.200,40.000,0.300,2.000,0.500,0,1.000,0,5.000,0
"04/05/08","07:14:54",2182.000,"cc",28360.838,6.00,6,0.100,2150.000,0.200,30.000,0.300,2.000,0.500,0,1.000,0,5.000,0
"04/05/08","07:15:00",1847.000,"cc",28349.109,6.00,6,0.100,1816.000,0.200,31.000,0.300,0,0.500,0,1.000,0,5.000,0
"04/05/08","07:15:06",1998.000,"cc",28258.963,6.00,6,0.100,1967.000,0.200,30.000,0.300,1.000,0.500,0,1.000,0,5.000,0
"04/05/08","07:15:12",2060.000,"cc",28375.016,6.00,6,0.100,2030.000,0.200,30.000,0.300,0,0.500,0,1.000,0,5.000,0
"04/05/08","07:15:18",1861.000,"cc",28274.049,6.00,6,0.100,1836.000,0.200,25.000,0.300,0,0.500,0,1.000,0,5.000,0
"04/05/08","07:15:24",1791.000,"cc",28292.377,6.00,6,0.100,1758.000,0.200,30.000,0.300,1.000,0.500,2.000,1.000,0,5.000,0
"04/05/08","07:15:30",1876.000,"cc",28321.479,6.00,6,0.100,1855.000,0.200,19.000,0.300,1.000,0.500,1.000,1.000,0,5.000,0
"04/05/08","07:15:36",1977.000,"cc",28319.160,6.00,6,0.100,1948.000,0.200,25.000,0.300,2.000,0.500,2.000,1.000,0,5.000,0
"04/05/08","07:15:42",1976.000,"cc",28338.717,6.00,6,0.100,1954.000,0.200,21.000,0.300,0,0.500,0,1.000,1.000,5.000,0
"04/05/08","07:15:48",1904.000,"cc",28373.115,6.00,6,0.100,1878.000,0.200,25.000,0.300,0,0.500,1.000,1.000,0,5.000,0
"04/05/08","07:15:54",1830.000,"cc",28309.041,6.00,6,0.100,1805.000,0.200,21.000,0.300,1.000,0.500,3.000,1.000,0,5.000,0
"04/05/08","07:16:00",1773.000,"cc",28340.369,6.00,6,0.100,1754.000,0.200,19.000,0.300,0,0.500,0,1.000,0,5.000,0
"04/05/08","07:16:06",1947.000,"cc",28281.357,6.00,6,0.100,1929.000,0.200,16.000,0.300,1.000,0.500,1.000,1.000,0,5.000,0
"04/05/08","07:16:12",1786.000,"cc",28284.938,6.00,6,0.100,1763.000,0.200,22.000,0.300,0,0.500,0,1.000,1.000,5.000,0
"04/05/08","07:16:18",1754.000,"cc",28304.283,6.00,6,0.100,1728.000,0.200,25.000,0.300,0,0.500,1.000,1.000,0,5.000,0
"04/05/08","07:16:24",1642.000,"cc",28317.104,6.00,6,0.100,1619.000,0.200,21.000,0.300,1.000,0.500,0,1.000,1.000,5.000,0
"04/05/08","07:16:30",1703.000,"cc",28410.748,6.00,6,0.100,1682.000,0.200,19.000,0.300,2.000,0.500,0,1.000,0,5.000,0
"04/05/08","07:16:36",1694.000,"cc",28283.846,6.00,6,0.100,1679.000,0.200,14.000,0.300,0,0.500,0,1.000,1.000,5.000,0
"04/05/08","07:16:42",1702.000,"cc",28335.746,6.00,6,0.100,1687.000,0.200,15.000,0.300,0,0.500,0,1.000,0,5.000,0
"04/05/08","07:16:48",1735.000,"cc",28311.104,6.00,6,0.100,1706.000,0.200,28.000,0.300,1.000,0.500,0,1.000,0,5.000,0
"04/05/08","07:16:54",1782.000,"cc",28356.324,6.00,6,0.100,1759.000,0.200,22.000,0.300,0,0.500,1.000,1.000,0,5.000,0
"04/05/08","07:17:00",1610.000,"cc",28297.225,6.00,6,0.100,1591.000,0.200,19.000,0.300,0,0.500,0,1.000,0,5.000,0
"04/05/08","07:17:06",1572.000,"cc",28297.328,6.00,6,0.100,1561.000,0.200,9.000,0.300,2.000,0.500,0,1.000,0,5.000,0
"04/05/08","07:17:12",1717.000,"cc",28340.293,6.00,6,0.100,1690.000,0.200,21.000,0.300,1.000,0.500,4.000,1.000,1.000,5.000,0
"04/05/08","07:17:18",1720.000,"cc",28300.498,6.00,6,0.100,1696.000,0.200,23.000,0.300,0,0.500,0,1.000,1.000,5.000,0
"04/05/08","07:17:24",1846.000,"cc",28337.400,6.00,6,0.100,1799.000,0.200,31.000,0.300,6.000,0.500,8.000,1.000,2.000,5.000,0
"04/05/08","07:17:30",1896.000,"cc",28279.818,6.00,6,0.100,1877.000,0.200,18.000,0.300,1.000,0.500,0,1.000,0,5.000,0
"04/05/08","07:17:36",1640.000,"cc",28271.992,6.00,6,0.100,1621.000,0.200,18.000,0.300,0,0.500,1.000,1.000,0,5.000,0
"04/05/08","07:17:42",1625.000,"cc",28307.731,6.00,6,0.100,1603.000,0.200,21.000,0.300,0,0.500,1.000,1.000,0,5.000,0
"04/05/08","07:17:48",1994.000,"cc",28409.361,6.00,6,0.100,1940.000,0.200,43.000,0.300,7.000,0.500,3.000,1.000,1.000,5.000,0
"04/05/08","07:17:54",2084.000,"cc",28324.986,6.00,6,0.100,2046.000,0.200,38.000,0.300,0,0.500,0,1.000,0,5.000,0
"04/05/08","07:18:00",2118.000,"cc",28205.045,6.00,6,0.100,2095.000,0.200,23.000,0.300,0,0.500,0,1.000,0,5.000,0
"04/05/08","07:18:06",1820.000,"cc",28303.539,6.00,6,0.100,1801.000,0.200,19.000,0.300,0,0.500,0,1.000,0,5.000,0
"04/05/08","07:18:12",1815.000,"cc",28289.898,6.00,6,0.100,1785.000,0.200,22.000,0.300,2.000,0.500,4.000,1.000,2.000,5.000,0
"04/05/08","07:18:18",1751.000,"cc",28358.154,6.00,6,0.100,1730.000,0.200,20.000,0.300,1.000,0.500,0,1.000,0,5.000,0
"04/05/08","07:18:24",1780.000,"cc",28322.553,6.00,6,0.100,1757.000,0.200,19.000,0.300,3.000,0.500,1.000,1.000,0,5.000,0
"04/05/08","07:18:30",1968.000,"cc",28309.168,6.00,6,0.100,1931.000,0.200,35.000,0.300,1.000,0.500,1.000,1.000,0,5.000,0
"04/05/08","07:18:36",2089.000,"cc",28279.809,6.00,6,0.100,2059.000,0.200,28.000,0.300,2.000,0.500,0,1.000,0,5.000,0
"04/05/08","07:18:42",2216.000,"cc",28297.322,6.00,6,0.100,2148.000,0.200,49.000,0.300,9.000,0.500,8.000,1.000,2.000,5.000,0
"04/05/08","07:18:48",2178.000,"cc",28307.133,6.00,6,0.100,2151.000,0.200,27.000,0.300,0,0.500,0,1.000,0,5.000,0
"04/05/08","07:18:54",2319.000,"cc",28351.549,6.00,6,0.100,2252.000,0.200,48.000,0.300,10.000,0.500,7.000,1.000,2.000,5.000,0
"04/05/08","07:19:00",2313.000,"cc",28267.438,6.00,6,0.100,2281.000,0.200,32.000,0.300,0,0.500,0,1.000,0,5.000,0